Location: Peebles
(55.6412°N, 3.1714°W)
Time: 07:26:27
(UTC+00:00)

COSMOS 2251 DEB - Pass Details

Date: 01 December 2022
Orbit: 738 x 761 km, 74.0° (Epoch: 29 January)

Event Time Altitude Azimuth Distance (km) Brightness Sun altitude
Exits shadow 06:29:21 12° 331° (NNW) 2,152 ? -14.1°
Maximum altitude 06:30:12 12° 342° (NNW) 2,126 ? -14.0°
Drops below altitude 10° 06:32:07 10° 4° (N) 2,260 ? -13.7°
Sets 06:36:10 0° 35° (NE) 3,188 ? -13.2°
